Time,TemperatureF,DewpointF,PressureIn,WindDirection,WindDirectionDegrees,WindSpeedMPH,WindSpeedGustMPH,Humidity,HourlyPrecipIn,Conditions,Clouds,dailyrainin,SoftwareType,DateUTC
2015-05-25 00:02:00,52.9,46.2,29.97,West,280,2.0,11.0,78,0.00,,OVC035,0.00,VWS V14.01,2015-05-25 07:02:00,
2015-05-25 00:32:00,52.3,46.0,29.97,NW,313,0.0,7.0,79,0.00,,OVC035,0.00,VWS V14.01,2015-05-25 07:32:00,
2015-05-25 01:02:00,51.7,45.4,29.97,NW,320,1.0,4.0,79,0.00,,OVC038,0.00,VWS V14.01,2015-05-25 08:02:00,
2015-05-25 01:32:00,51.4,45.1,29.97,WNW,289,0.0,4.0,79,0.00,,OVC038,0.00,VWS V14.01,2015-05-25 08:32:00,
2015-05-25 02:02:00,51.7,45.1,29.97,WNW,285,0.0,4.0,78,0.00,,OVC034,0.00,VWS V14.01,2015-05-25 09:02:00,
2015-05-25 02:32:00,51.9,45.3,29.97,WNW,292,0.0,5.0,78,0.00,,OVC034,0.00,VWS V14.01,2015-05-25 09:32:00,
2015-05-25 03:02:00,52.0,45.4,29.96,West,265,5.0,6.0,78,0.00,,OVC030,0.00,VWS V14.01,2015-05-25 10:02:00,
2015-05-25 03:32:00,52.0,45.4,29.96,NNW,334,2.0,7.0,78,0.00,,OVC030,0.00,VWS V14.01,2015-05-25 10:32:00,
2015-05-25 04:02:00,51.9,45.3,29.96,SSW,211,0.0,4.0,78,0.00,,OVC032,0.00,VWS V14.01,2015-05-25 11:02:00,
2015-05-25 04:32:00,51.9,45.3,29.96,SW,226,0.0,4.0,78,0.00,,OVC032,0.00,VWS V14.01,2015-05-25 11:32:00,
2015-05-25 05:02:00,51.7,45.4,29.96,West,263,0.0,3.0,79,0.00,,OVC032,0.00,VWS V14.01,2015-05-25 12:02:00,
2015-05-25 05:32:00,51.4,45.5,29.96,West,263,0.0,3.0,80,0.00,,OVC032,0.00,VWS V14.01,2015-05-25 12:32:00,
2015-05-25 06:02:00,51.4,45.8,29.97,WNW,291,0.0,4.0,81,0.00,,OVC032,0.00,VWS V14.01,2015-05-25 13:02:00,
2015-05-25 06:32:00,51.4,45.8,29.97,WNW,292,0.0,2.0,81,0.00,,OVC032,0.00,VWS V14.01,2015-05-25 13:32:00,
2015-05-25 07:02:00,51.7,46.4,29.98,WNW,291,0.0,3.0,82,0.00,,OVC031,0.00,VWS V14.01,2015-05-25 14:02:00,
2015-05-25 07:32:00,52.5,46.8,29.98,WNW,294,0.0,5.0,81,0.00,,OVC031,0.00,VWS V14.01,2015-05-25 14:32:00,
2015-05-25 08:32:00,53.9,46.9,29.97,West,271,0.0,4.0,77,0.00,,OVC030,0.00,VWS V14.01,2015-05-25 15:32:00,
2015-05-25 09:02:00,54.8,46.3,29.98,West,274,0.0,4.0,73,0.00,,OVC030,0.00,VWS V14.01,2015-05-25 16:02:00,
2015-05-25 09:32:00,55.3,46.4,29.99,NW,315,2.0,3.0,72,0.00,,OVC030,0.00,VWS V14.01,2015-05-25 16:32:00,
2015-05-25 10:02:00,54.5,46.8,29.99,NNW,340,0.0,5.0,75,0.00,,OVC029,0.00,VWS V14.01,2015-05-25 17:02:00,
2015-05-25 10:32:00,55.4,46.5,29.99,NNW,340,0.0,3.0,72,0.00,,OVC029,0.00,VWS V14.01,2015-05-25 17:32:00,
2015-05-25 11:02:00,56.5,46.8,29.99,East,95,0.0,3.0,70,0.00,,OVC029,0.00,VWS V14.01,2015-05-25 18:02:00,
2015-05-25 11:32:00,56.6,46.9,29.99,North,9,1.0,2.0,70,0.00,,OVC029,0.00,VWS V14.01,2015-05-25 18:32:00,
2015-05-25 12:02:00,56.7,46.3,29.99,North,9,0.0,2.0,68,0.00,,OVC028,0.00,VWS V14.01,2015-05-25 19:02:00,
2015-05-25 12:32:00,58.0,46.7,29.99,North,355,0.0,3.0,66,0.00,,OVC028,0.00,VWS V14.01,2015-05-25 19:32:00,
2015-05-25 13:02:00,58.4,47.1,29.99,NNE,13,1.0,5.0,66,0.00,,OVC028,0.00,VWS V14.01,2015-05-25 20:02:00,